| time (UTC) | temp C | wind direction | speed KPH | gust KPH | rain 1hr cm | rain 24hr cm | rain mn cm | humidity % | barometer mb |
| 20260510150032 | 20 | 178 | 1.6 | 6.4 | 0.00 | 0.03 | 0.00 | 71 | 1013.5 |
| 20260510145504 | 19 | 121 | 0.0 | 6.4 | 0.00 | 0.03 | 0.00 | 72 | 1013.5 |
| 20260510145004 | 19 | 92 | 1.6 | 6.4 | 0.00 | 0.03 | 0.00 | 73 | 1013.4 |
| 20260510144517 | 19 | 95 | 1.6 | 9.7 | 0.00 | 0.03 | 0.00 | 73 | 1013.3 |
| 20260510144005 | 19 | 83 | 3.2 | 9.7 | 0.00 | 0.03 | 0.00 | 73 | 1013.3 |
| 20260510143507 | 20 | 98 | 3.2 | 9.7 | 0.00 | 0.03 | 0.00 | 73 | 1013.3 |
| 20260510143024 | 20 | 94 | 3.2 | 6.4 | 0.00 | 0.03 | 0.00 | 74 | 1013.1 |
| 20260510142512 | 19 | 159 | 0.0 | 8.0 | 0.00 | 0.03 | 0.00 | 76 | 1013.1 |
| 20260510142013 | 18 | 97 | 1.6 | 8.0 | 0.00 | 0.03 | 0.00 | 75 | 1013.3 |
| 20260510141526 | 18 | 98 | 0.0 | 4.8 | 0.00 | 0.03 | 0.00 | 77 | 1013.4 |
| 20260510140506 | 18 | 167 | 0.0 | 3.2 | 0.00 | 0.03 | 0.00 | 78 | 1013.4 |
| 20260510140021 | 18 | 236 | 0.0 | 3.2 | 0.00 | 0.03 | 0.00 | 78 | 1013.3 |
| 20260510135509 | 17 | 266 | 0.0 | 3.2 | 0.00 | 0.03 | 0.00 | 78 | 1013.4 |
| 20260510135014 | 17 | 200 | 0.0 | 3.2 | 0.00 | 0.03 | 0.00 | 79 | 1013.4 |
| 20260510134525 | 17 | 254 | 0.0 | 3.2 | 0.00 | 0.03 | 0.00 | 79 | 1013.3 |
| 20260510134011 | 17 | 256 | 0.0 | 3.2 | 0.00 | 0.03 | 0.00 | 78 | 1013.2 |
| 20260510133504 | 18 | 243 | 0.0 | 3.2 | 0.00 | 0.03 | 0.00 | 79 | 1013.2 |
| 20260510133012 | 18 | 205 | 1.6 | 3.2 | 0.00 | 0.03 | 0.00 | 78 | 1013.2 |
| 20260510132506 | 18 | 186 | 0.0 | 3.2 | 0.00 | 0.03 | 0.00 | 79 | 1013.3 |
| 20260510132009 | 18 | 220 | 0.0 | 3.2 | 0.00 | 0.03 | 0.00 | 77 | 1013.3 |
| 20260510131526 | 18 | 224 | 0.0 | 3.2 | 0.00 | 0.03 | 0.00 | 76 | 1013.4 |
| 20260510131008 | 18 | 227 | 0.0 | 3.2 | 0.00 | 0.03 | 0.00 | 76 | 1013.4 |
| 20260510130510 | 17 | 270 | 0.0 | 3.2 | 0.00 | 0.03 | 0.00 | 77 | 1013.5 |
| 20260510130027 | 17 | 25 | 0.0 | 3.2 | 0.00 | 0.03 | 0.00 | 78 | 1013.6 |
| 20260510125504 | 17 | 118 | 0.0 | 3.2 | 0.00 | 0.03 | 0.00 | 79 | 1013.6 |
| 20260510124526 | 17 | 352 | 0.0 | 3.2 | 0.00 | 0.03 | 0.00 | 84 | 1013.6 |
| 20260510124010 | 16 | 5 | 0.0 | 3.2 | 0.00 | 0.03 | 0.00 | 84 | 1013.8 |
| 20260510123508 | 16 | 10 | 0.0 | 3.2 | 0.00 | 0.03 | 0.00 | 86 | 1013.7 |
| 20260510123025 | 15 | 340 | 0.0 | 3.2 | 0.00 | 0.03 | 0.00 | 87 | 1013.8 |
| 20260510122512 | 15 | 17 | 0.0 | 3.2 | 0.00 | 0.03 | 0.00 | 90 | 1013.8 |
| 20260510122010 | 14 | 305 | 0.0 | 3.2 | 0.00 | 0.03 | 0.00 | 91 | 1013.7 |
| 20260510121513 | 13 | 279 | 0.0 | 3.2 | 0.00 | 0.03 | 0.00 | 93 | 1013.6 |
| 20260510121007 | 13 | 336 | 0.0 | 1.6 | 0.00 | 0.03 | 0.00 | 93 | 1013.7 |
| 20260510120509 | 13 | 335 | 0.0 | 1.6 | 0.00 | 0.03 | 0.00 | 94 | 1013.6 |
| 20260510120013 | 12 | 212 | 0.0 | 1.6 | 0.00 | 0.03 | 0.00 | 95 | 1013.6 |
| 20260510115503 | 12 | 271 | 0.0 | 0.0 | 0.00 | 0.03 | 0.00 | 95 | 1013.6 |
| 20260510115003 | 12 | 271 | 0.0 | 0.0 | 0.00 | 0.03 | 0.00 | 95 | 1013.6 |
| 20260510114516 | 12 | 306 | 0.0 | 0.0 | 0.00 | 0.03 | 0.00 | 95 | 1013.5 |
| 20260510114003 | 12 | 306 | 0.0 | 0.0 | 0.00 | 0.03 | 0.00 | 1013.4 | |
| 20260510113504 | 11 | 306 | 0.0 | 0.0 | 0.00 | 0.03 | 0.00 | 95 | 1013.3 |
| 20260510111003 | 10 | 311 | 0.0 | 0.0 | 0.00 | 0.03 | 0.00 | 94 | 1013.0 |
| 20260510110017 | 10 | 311 | 0.0 | 0.0 | 0.00 | 0.03 | 0.00 | 93 | 1012.9 |
| 20260510105510 | -17 | 0.0 | 0.0 | 0.00 | 0.03 | 0.00 | 1012.6 | ||
| 20260510105010 | -17 | 0.0 | 0.0 | 0.00 | 0.03 | 0.00 | 1012.4 | ||
| 20260510104528 | -17 | 0.0 | 0.0 | 0.00 | 0.03 | 0.00 | 1012.3 | ||
| 20260510104010 | -17 | 0.0 | 0.0 | 0.00 | 0.03 | 0.00 | 1012.1 | ||
| 20260510103507 | -17 | 0.0 | 0.0 | 0.00 | 0.03 | 0.00 | 1012.0 | ||
| 20260510103028 | -17 | 0.0 | 0.0 | 0.00 | 0.03 | 0.00 | 1012.0 | ||
| 20260510102510 | -17 | 0.0 | 0.0 | 0.00 | 0.03 | 0.00 | 1011.9 | ||
| 20260510102011 | -17 | 0.0 | 0.0 | 0.00 | 0.03 | 0.00 | 1012.0 | ||
| 20260510101527 | -17 | 0.0 | 0.0 | 0.00 | 0.03 | 0.00 | 1011.9 | ||
| 20260510101011 | -17 | 0.0 | 0.0 | 0.00 | 0.03 | 0.00 | 1011.8 | ||
| 20260510100509 | -17 | 0.0 | 0.0 | 0.00 | 0.03 | 0.00 | 1011.9 | ||
| 20260510100027 | -17 | 0.0 | 0.0 | 0.00 | 0.03 | 0.00 | 1011.9 | ||
| 20260510095516 | -17 | 0.0 | 0.0 | 0.00 | 0.03 | 0.00 | 1012.0 | ||
| 20260510095012 | -17 | 0.0 | 0.0 | 0.00 | 0.03 | 0.00 | 1012.0 | ||
| 20260510094542 | -17 | 0.0 | 0.0 | 0.00 | 0.03 | 0.00 | 1012.0 | ||
| 20260510094012 | -17 | 0.0 | 0.0 | 0.00 | 0.03 | 0.00 | 1012.0 | ||
| 20260510093510 | -17 | 0.0 | 0.0 | 0.00 | 0.03 | 0.00 | 1012.0 | ||
| 20260510093033 | -17 | 0.0 | 0.0 | 0.00 | 0.03 | 0.00 | 1012.0 | ||
| 20260510092515 | -17 | 0.0 | 0.0 | 0.00 | 0.03 | 0.00 | 1012.0 | ||
| 20260510092011 | -17 | 0.0 | 0.0 | 0.00 | 0.03 | 0.00 | 1011.8 | ||
| 20260510091533 | -17 | 0.0 | 0.0 | 0.00 | 0.03 | 0.00 | 1011.7 | ||
| 20260510091010 | -17 | 0.0 | 0.0 | 0.00 | 0.03 | 0.00 | 1011.8 | ||
| 20260510090510 | -17 | 0.0 | 0.0 | 0.00 | 0.03 | 0.00 | 1011.7 | ||
| 20260510090028 | -17 | 0.0 | 0.0 | 0.00 | 0.03 | 0.00 | 1011.6 | ||
| 20260510085512 | -17 | 0.0 | 0.0 | 0.00 | 0.03 | 0.00 | 1011.5 | ||
| 20260510085010 | -17 | 0.0 | 0.0 | 0.00 | 0.03 | 0.00 | 1011.5 | ||
| 20260510084527 | -17 | 0.0 | 0.0 | 0.00 | 0.03 | 0.00 | 1011.3 | ||
| 20260510084011 | -17 | 0.0 | 0.0 | 0.00 | 0.03 | 0.00 | 1011.3 | ||
| 20260510083511 | -17 | 0.0 | 0.0 | 0.00 | 0.03 | 0.00 | 1011.3 | ||
| 20260510083047 | -17 | 0.0 | 0.0 | 0.00 | 0.03 | 0.00 | 1011.2 | ||
| 20260510082509 | -17 | 0.0 | 0.0 | 0.00 | 0.03 | 0.00 | 1011.1 | ||
| 20260510082013 | -17 | 0.0 | 0.0 | 0.00 | 0.03 | 0.00 | 1011.0 | ||
| 20260510081527 | -17 | 0.0 | 0.0 | 0.00 | 0.03 | 0.00 | 1011.0 | ||
| 20260510081008 | -17 | 0.0 | 0.0 | 0.00 | 0.03 | 0.00 | 1010.9 | ||
| 20260510080509 | -17 | 0.0 | 0.0 | 0.00 | 0.03 | 0.00 | 1010.8 | ||
| 20260510080028 | -17 | 0.0 | 0.0 | 0.00 | 0.03 | 0.00 | 1010.8 | ||
| 20260510075509 | -17 | 0.0 | 0.0 | 0.00 | 0.03 | 0.00 | 1010.7 | ||
| 20260510075012 | -17 | 0.0 | 0.0 | 0.00 | 0.03 | 0.00 | 1010.6 | ||
| 20260510074529 | -17 | 0.0 | 0.0 | 0.00 | 0.03 | 0.00 | 1010.6 | ||
| 20260510074017 | -17 | 0.0 | 0.0 | 0.00 | 0.03 | 0.00 | 1010.6 | ||
| 20260510073509 | -17 | 0.0 | 0.0 | 0.00 | 0.03 | 0.00 | 1010.6 | ||
| 20260510073033 | -17 | 0.0 | 0.0 | 0.00 | 0.03 | 0.00 | 1010.6 | ||
| 20260510072514 | -17 | 0.0 | 0.0 | 0.00 | 0.03 | 0.00 | 1010.6 | ||
| 20260510072011 | -17 | 0.0 | 0.0 | 0.00 | 0.03 | 0.00 | 1010.6 | ||
| 20260510071536 | -17 | 0.0 | 0.0 | 0.00 | 0.03 | 0.00 | 1010.6 | ||
| 20260510071011 | -17 | 0.0 | 0.0 | 0.00 | 0.03 | 0.00 | 1010.4 | ||
| 20260510070509 | -17 | 0.0 | 0.0 | 0.00 | 0.03 | 0.00 | 1010.5 | ||
| 20260510070028 | -17 | 0.0 | 0.0 | 0.00 | 0.03 | 0.00 | 1010.5 | ||
| 20260510065508 | -17 | 0.0 | 0.0 | 0.00 | 0.03 | 0.00 | 1010.5 | ||
| 20260510065012 | -17 | 0.0 | 0.0 | 0.00 | 0.03 | 0.00 | 1010.5 | ||
| 20260510064525 | -17 | 0.0 | 0.0 | 0.00 | 0.03 | 0.00 | 1010.4 | ||
| 20260510064010 | -17 | 0.0 | 0.0 | 0.00 | 0.03 | 0.00 | 1010.3 | ||
| 20260510063513 | -17 | 0.0 | 0.0 | 0.00 | 0.03 | 0.00 | 1010.3 | ||
| 20260510063027 | -17 | 0.0 | 0.0 | 0.00 | 0.03 | 0.00 | 1010.3 | ||
| 20260510062514 | -17 | 0.0 | 0.0 | 0.00 | 0.03 | 0.00 | 1010.3 | ||
| 20260510062012 | 11 | 0.0 | 0.0 | 0.00 | 0.03 | 0.00 | 91 | 1010.3 | |
| 20260510061534 | 11 | 307 | 0.0 | 0.0 | 0.00 | 0.03 | 0.00 | 91 | 1010.3 |
| 20260510061008 | 11 | 307 | 0.0 | 0.0 | 0.00 | 0.03 | 0.00 | 91 | 1010.3 |
| 20260510060512 | 11 | 307 | 0.0 | 0.0 | 0.00 | 0.03 | 0.00 | 91 | 1010.3 |
| 20260510060034 | 11 | 307 | 0.0 | 1.6 | 0.00 | 0.03 | 0.00 | 91 | 1010.3 |
| 20260510055506 | 12 | 307 | 0.0 | 1.6 | 0.00 | 0.03 | 0.00 | 91 | 1010.3 |
| 20260510055011 | 12 | 308 | 0.0 | 0.0 | 0.00 | 0.03 | 0.00 | 91 | 1010.3 |
| 20260510054535 | 12 | 284 | 0.0 | 0.0 | 0.00 | 0.03 | 0.00 | 91 | 1010.4 |
| 20260510054016 | 12 | 9 | 0.0 | 0.0 | 0.00 | 0.03 | 0.00 | 91 | 1010.3 |
| 20260510053511 | 12 | 9 | 0.0 | 0.0 | 0.00 | 0.03 | 0.00 | 91 | 1010.4 |
| 20260510053026 | 12 | 9 | 0.0 | 0.0 | 0.00 | 0.03 | 0.00 | 1010.5 | |
| 20260510052509 | 12 | 9 | 0.0 | 0.0 | 0.00 | 0.03 | 0.00 | 1010.4 | |
| 20260510052006 | 12 | 9 | 0.0 | 0.0 | 0.00 | 0.03 | 0.00 | 1010.4 | |
| 20260510051521 | 12 | 9 | 0.0 | 0.0 | 0.00 | 0.03 | 0.00 | 1010.5 | |
| 20260510051007 | 12 | 9 | 0.0 | 0.0 | 0.00 | 0.03 | 0.00 | 1010.4 | |
| 20260510045005 | 12 | 9 | 0.0 | 0.0 | 0.00 | 0.03 | 0.00 | 90 | 1010.7 |
| 20260510044504 | 12 | 9 | 0.0 | 0.0 | 0.00 | 0.03 | 0.00 | 90 | 1010.7 |
| 20260510044001 | 12 | 9 | 0.0 | 0.0 | 0.00 | 0.03 | 0.00 | 90 | 1010.6 |
| 20260510043503 | 12 | 9 | 0.0 | 0.0 | 0.00 | 0.03 | 0.00 | 90 | 1010.6 |
| 20260510043005 | 12 | 9 | 0.0 | 0.0 | 0.00 | 0.03 | 0.00 | 90 | 1010.6 |
| 20260510042505 | 12 | 9 | 0.0 | 0.0 | 0.00 | 0.03 | 0.00 | 89 | 1010.5 |
| 20260510042005 | 12 | 9 | 0.0 | 0.0 | 0.00 | 0.03 | 0.00 | 89 | 1010.5 |
| 20260510041512 | 13 | 9 | 0.0 | 0.0 | 0.00 | 0.03 | 0.00 | 89 | 1010.5 |
| 20260510041003 | 13 | 9 | 0.0 | 0.0 | 0.00 | 0.03 | 0.00 | 89 | 1010.4 |
| 20260510040503 | 13 | 9 | 0.0 | 0.0 | 0.00 | 0.03 | 0.00 | 89 | 1010.5 |
| 20260510035502 | 13 | 9 | 0.0 | 0.0 | 0.00 | 0.03 | 0.03 | 89 | 1010.5 |
| 20260510034003 | 13 | 9 | 0.0 | 0.0 | 0.00 | 0.03 | 0.03 | 88 | 1010.3 |
| 20260510033016 | 13 | 9 | 0.0 | 0.0 | 0.00 | 0.03 | 0.03 | 88 | 1010.3 |
| 20260510032501 | 13 | 9 | 0.0 | 0.0 | 0.00 | 0.03 | 0.03 | 87 | 1010.4 |
| 20260510032003 | 13 | 9 | 0.0 | 0.0 | 0.00 | 0.03 | 0.03 | 87 | 1010.3 |
| 20260510031509 | 14 | 9 | 0.0 | 0.0 | 0.00 | 0.03 | 0.03 | 87 | 1010.2 |
| 20260510031006 | 14 | 9 | 0.0 | 0.0 | 0.00 | 0.03 | 0.03 | 87 | 1010.1 |
| 20260510030503 | 14 | 9 | 0.0 | 0.0 | 0.00 | 0.03 | 0.03 | 87 | 1010.2 |
| 20260510030017 | 14 | 9 | 0.0 | 0.0 | 0.00 | 0.03 | 0.03 | 87 | 1010.2 |
| 20260510025508 | 14 | 9 | 0.0 | 0.0 | 0.00 | 0.03 | 0.03 | 87 | 1010.1 |
| 20260510025011 | 14 | 9 | 0.0 | 0.0 | 0.00 | 0.03 | 0.03 | 86 | 1010.1 |
| 20260510024001 | 15 | 9 | 0.0 | 0.0 | 0.00 | 0.03 | 0.03 | 86 | 1010.1 |
| 20260510023503 | 15 | 9 | 0.0 | 0.0 | 0.00 | 0.03 | 0.03 | 86 | 1010.1 |
| 20260510022504 | 15 | 9 | 0.0 | 0.0 | 0.00 | 0.03 | 0.03 | 86 | 1010.3 |
| 20260510022003 | 15 | 9 | 0.0 | 0.0 | 0.00 | 0.03 | 0.03 | 85 | 1010.2 |
| 20260510020511 | 15 | 9 | 0.0 | 3.2 | 0.00 | 0.03 | 0.03 | 85 | 1010.2 |
| 20260510020005 | 15 | 28 | 0.0 | 0.0 | 0.00 | 0.03 | 0.03 | 84 | 1010.1 |
| 20260510015503 | 15 | 28 | 0.0 | 0.0 | 0.00 | 0.03 | 0.03 | 85 | 1010.0 |
| 20260510015003 | 15 | 28 | 0.0 | 0.0 | 0.00 | 0.03 | 0.03 | 84 | 1010.0 |
| 20260510014509 | 15 | 28 | 0.0 | 0.0 | 0.00 | 0.03 | 0.03 | 84 | 1009.9 |
| 20260510014004 | 15 | 28 | 0.0 | 0.0 | 0.00 | 0.03 | 0.03 | 84 | 1009.9 |
| 20260510013508 | 15 | 28 | 0.0 | 0.0 | 0.00 | 0.03 | 0.03 | 84 | 1009.9 |
| 20260510013017 | 15 | 28 | 0.0 | 0.0 | 0.00 | 0.03 | 0.03 | 84 | 1009.8 |
| 20260510012509 | 15 | 28 | 0.0 | 0.0 | 0.00 | 0.03 | 0.03 | 83 | 1009.8 |
| 20260510012003 | 15 | 28 | 0.0 | 0.0 | 0.00 | 0.03 | 0.03 | 83 | 1009.8 |
| 20260510011508 | 16 | 28 | 0.0 | 0.0 | 0.00 | 0.03 | 0.03 | 82 | 1009.7 |
| 20260510011004 | 16 | 28 | 0.0 | 0.0 | 0.00 | 0.03 | 0.03 | 82 | 1009.7 |
| 20260510010504 | 16 | 28 | 0.0 | 3.2 | 0.00 | 0.03 | 0.03 | 82 | 1009.7 |
| 20260510005505 | 16 | 20 | 0.0 | 3.2 | 0.00 | 0.03 | 0.03 | 81 | 1009.6 |
| 20260510005004 | 16 | 195 | 0.0 | 0.0 | 0.00 | 0.03 | 0.03 | 80 | 1009.6 |
| 20260510004004 | 16 | 121 | 0.0 | 0.0 | 0.00 | 0.03 | 0.03 | 79 | 1009.4 |
| 20260510003503 | 16 | 121 | 0.0 | 0.0 | 0.00 | 0.03 | 0.03 | 79 | 1009.3 |
| 20260510003016 | 17 | 121 | 0.0 | 0.0 | 0.00 | 0.03 | 0.03 | 79 | 1009.4 |
| 20260510002005 | 17 | 121 | 0.0 | 0.0 | 0.00 | 0.03 | 0.03 | 77 | 1009.3 |
| 20260510001521 | 17 | 121 | 0.0 | 0.0 | 0.00 | 0.03 | 0.03 | 77 | 1009.3 |
| 20260510001010 | 17 | 121 | 0.0 | 0.0 | 0.00 | 0.03 | 0.03 | 76 | 1009.3 |
| 20260510000505 | 17 | 121 | 0.0 | 0.0 | 0.00 | 0.03 | 0.03 | 76 | 1009.2 |
| 20260510000004 | 17 | 121 | 0.0 | 0.0 | 0.00 | 0.03 | 0.03 | 76 | 1009.2 |
| 20260509235504 | 17 | 122 | 0.0 | 0.0 | 0.00 | 0.03 | 0.03 | 75 | 1009.2 |
| 20260509235004 | 18 | 122 | 0.0 | 0.0 | 0.00 | 0.03 | 0.03 | 75 | 1009.2 |
| 20260509234523 | 18 | 122 | 0.0 | 1.6 | 0.00 | 0.03 | 0.03 | 74 | 1009.1 |
| 20260509234004 | 18 | 121 | 0.0 | 3.2 | 0.00 | 0.03 | 0.03 | 73 | 1009.1 |
| 20260509233505 | 18 | 101 | 0.0 | 3.2 | 0.00 | 0.03 | 0.03 | 71 | 1009.0 |
| 20260509232506 | 18 | 108 | 0.0 | 0.0 | 0.00 | 0.03 | 0.03 | 70 | 1008.9 |
| 20260509232002 | 18 | 108 | 0.0 | 1.6 | 0.00 | 0.03 | 0.03 | 69 | 1008.9 |
| 20260509231512 | 19 | 108 | 0.0 | 3.2 | 0.00 | 0.03 | 0.03 | 69 | 1008.8 |
| 20260509231004 | 19 | 103 | 0.0 | 3.2 | 0.00 | 0.03 | 0.03 | 68 | 1008.9 |
| 20260509230011 | 19 | 106 | 0.0 | 1.6 | 0.00 | 0.03 | 0.03 | 66 | 1008.8 |
| 20260509225507 | 20 | 95 | 0.0 | 3.2 | 0.00 | 0.03 | 0.03 | 69 | 1008.8 |
| 20260509225006 | 20 | 102 | 0.0 | 3.2 | 0.00 | 0.03 | 0.03 | 68 | 1008.7 |
| 20260509224524 | 20 | 70 | 0.0 | 1.6 | 0.00 | 0.03 | 0.03 | 68 | 1008.8 |
| 20260509224003 | 20 | 24 | 0.0 | 3.2 | 0.00 | 0.03 | 0.03 | 67 | 1009.0 |
| 20260509223506 | 20 | 26 | 0.0 | 3.2 | 0.00 | 0.03 | 0.03 | 67 | 1009.0 |
| 20260509223011 | 20 | 11 | 0.0 | 3.2 | 0.00 | 0.03 | 0.03 | 67 | 1008.9 |
| 20260509222505 | 20 | 336 | 0.0 | 3.2 | 0.00 | 0.03 | 0.03 | 67 | 1008.9 |
| 20260509222004 | 20 | 87 | 0.0 | 3.2 | 0.00 | 0.03 | 0.03 | 67 | 1008.9 |
| 20260509221516 | 20 | 349 | 0.0 | 3.2 | 0.00 | 0.03 | 0.03 | 67 | 1008.9 |
| 20260509221010 | 20 | 5 | 0.0 | 3.2 | 0.00 | 0.03 | 0.03 | 67 | 1008.9 |
| 20260509220510 | 20 | 9 | 0.0 | 3.2 | 0.00 | 0.03 | 0.03 | 67 | 1009.0 |
| 20260509220028 | 20 | 22 | 0.0 | 6.4 | 0.00 | 0.03 | 0.03 | 66 | 1008.9 |
| 20260509215506 | 20 | 12 | 1.6 | 6.4 | 0.00 | 0.03 | 0.03 | 66 | 1008.9 |
| 20260509215005 | 20 | 352 | 0.0 | 3.2 | 0.00 | 0.03 | 0.03 | 68 | 1008.9 |
| 20260509214009 | 20 | 5 | 1.6 | 4.8 | 0.00 | 0.03 | 0.03 | 68 | 1009.0 |
| 20260509213023 | 20 | 25 | 1.6 | 3.2 | 0.00 | 0.03 | 0.03 | 68 | 1008.9 |
| 20260509212510 | 20 | 111 | 0.0 | 3.2 | 0.00 | 0.03 | 0.03 | 69 | 1008.9 |
| 20260509212014 | 20 | 248 | 0.0 | 3.2 | 0.00 | 0.03 | 0.03 | 68 | 1008.9 |
| 20260509211507 | 20 | 93 | 0.0 | 3.2 | 0.00 | 0.03 | 0.03 | 70 | 1008.8 |
| 20260509211003 | 20 | 101 | 0.0 | 4.8 | 0.00 | 0.03 | 0.03 | 70 | 1008.7 |
| 20260509210507 | 20 | 103 | 1.6 | 6.4 | 0.00 | 0.03 | 0.03 | 69 | 1008.7 |
| 20260509210021 | 20 | 90 | 0.0 | 6.4 | 0.00 | 0.03 | 0.03 | 69 | 1008.7 |
| 20260509205507 | 20 | 90 | 1.6 | 6.4 | 0.00 | 0.03 | 0.03 | 70 | 1008.7 |
| 20260509205006 | 20 | 87 | 1.6 | 6.4 | 0.00 | 0.03 | 0.03 | 70 | 1008.7 |
| 20260509204526 | 20 | 78 | 1.6 | 4.8 | 0.00 | 0.03 | 0.03 | 71 | 1008.6 |
| 20260509204011 | 20 | 89 | 0.0 | 3.2 | 0.00 | 0.03 | 0.03 | 72 | 1008.7 |
| 20260509203506 | 19 | 114 | 0.0 | 3.2 | 0.00 | 0.03 | 0.03 | 71 | 1008.8 |
| 20260509202505 | 19 | 202 | 1.6 | 3.2 | 0.00 | 0.03 | 0.03 | 75 | 1008.8 |
| 20260509200026 | 18 | 340 | 0.0 | 3.2 | 0.03 | 0.03 | 0.03 | 79 | 1009.2 |
| 20260509195504 | 18 | 302 | 0.0 | 3.2 | 0.03 | 0.03 | 0.03 | 77 | 1009.3 |
| 20260509194517 | 18 | 82 | 1.6 | 4.8 | 0.03 | 0.03 | 0.03 | 79 | 1009.4 |
| 20260509194003 | 17 | 105 | 0.0 | 3.2 | 0.03 | 0.03 | 0.03 | 80 | 1009.5 |
| 20260509193503 | 17 | 110 | 0.0 | 3.2 | 0.03 | 0.03 | 0.03 | 82 | 1009.5 |
| 20260509193005 | 17 | 34 | 0.0 | 1.6 | 0.03 | 0.03 | 0.03 | 85 | 1009.4 |
| 20260509192503 | 17 | 26 | 0.0 | 3.2 | 0.03 | 0.03 | 0.03 | 85 | 1009.4 |
| 20260509192002 | 17 | 40 | 0.0 | 3.2 | 0.03 | 0.03 | 0.03 | 85 | 1009.5 |
| 20260509191504 | 16 | 84 | 0.0 | 3.2 | 0.03 | 0.03 | 0.03 | 85 | 1009.5 |
| 20260509191007 | 16 | 94 | 0.0 | 6.4 | 0.03 | 0.03 | 0.03 | 85 | 1009.8 |
| 20260509190503 | 16 | 84 | 0.0 | 6.4 | 0.00 | 0.00 | 0.00 | 83 | 1010.1 |
| 20260509190013 | 17 | 177 | 0.0 | 3.2 | 0.00 | 0.00 | 0.00 | 83 | 1010.3 |
| 20260509185503 | 17 | 174 | 0.0 | 0.0 | 0.00 | 0.00 | 0.00 | 82 | 1010.2 |
| 20260509185004 | 17 | 174 | 0.0 | 0.0 | 0.00 | 0.00 | 0.00 | 81 | 1010.2 |
| 20260509184503 | 17 | 175 | 0.0 | 3.2 | 0.00 | 0.00 | 0.00 | 80 | 1010.2 |
| 20260509184003 | 17 | 122 | 0.0 | 3.2 | 0.00 | 0.00 | 0.00 | 78 | 1010.1 |
| 20260509183503 | 17 | 122 | 0.0 | 0.0 | 0.00 | 0.00 | 0.00 | 77 | 1010.1 |
| 20260509183004 | 17 | 86 | 0.0 | 1.6 | 0.00 | 0.00 | 0.00 | 78 | 1010.2 |
| 20260509182503 | 17 | 86 | 0.0 | 3.2 | 0.00 | 0.00 | 0.00 | 76 | 1010.2 |
| 20260509182003 | 18 | 350 | 0.0 | 3.2 | 0.00 | 0.00 | 0.00 | 73 | 1010.4 |
| 20260509181504 | 18 | 348 | 0.0 | 1.6 | 0.00 | 0.00 | 0.00 | 70 | 1010.5 |
| 20260509181004 | 18 | 346 | 0.0 | 3.2 | 0.00 | 0.00 | 0.00 | 70 | 1010.6 |
| 20260509180504 | 18 | 346 | 0.0 | 3.2 | 0.00 | 0.00 | 0.00 | 70 | 1010.6 |
| 20260509180008 | 18 | 342 | 0.0 | 3.2 | 0.00 | 0.00 | 0.00 | 70 | 1010.6 |
| 20260509175504 | 18 | 19 | 0.0 | 4.8 | 0.00 | 0.00 | 0.00 | 69 | 1010.5 |
| 20260509175004 | 18 | 5 | 1.6 | 4.8 | 0.00 | 0.00 | 0.00 | 69 | 1010.6 |
| 20260509174508 | 18 | 246 | 1.6 | 4.8 | 0.00 | 0.00 | 0.00 | 70 | 1010.6 |
| 20260509174005 | 18 | 336 | 3.2 | 4.8 | 0.00 | 0.00 | 0.00 | 70 | 1010.5 |
| 20260509173503 | 18 | 342 | 3.2 | 6.4 | 0.00 | 0.00 | 0.00 | 69 | 1010.4 |
| 20260509173006 | 18 | 296 | 0.0 | 6.4 | 0.00 | 0.00 | 0.00 | 69 | 1010.5 |
| 20260509172504 | 18 | 344 | 1.6 | 6.4 | 0.00 | 0.00 | 0.00 | 69 | 1010.5 |
| 20260509172003 | 19 | 301 | 3.2 | 6.4 | 0.00 | 0.00 | 0.00 | 68 | 1010.4 |
| 20260509171511 | 19 | 25 | 0.0 | 4.8 | 0.00 | 0.00 | 0.00 | 66 | 1010.5 |
| 20260509171005 | 19 | 281 | 0.0 | 3.2 | 0.00 | 0.00 | 0.00 | 65 | 1010.4 |
| 20260509170504 | 19 | 337 | 0.0 | 3.2 | 0.00 | 0.00 | 0.00 | 66 | 1010.6 |
| 20260509170009 | 19 | 42 | 0.0 | 3.2 | 0.00 | 0.00 | 0.00 | 65 | 1010.5 |
| 20260509165504 | 19 | 166 | 0.0 | 3.2 | 0.00 | 0.00 | 0.00 | 65 | 1010.5 |
| 20260509165002 | 19 | 61 | 0.0 | 1.6 | 0.00 | 0.00 | 0.00 | 64 | 1010.6 |
| 20260509164512 | 19 | 292 | 0.0 | 1.6 | 0.00 | 0.00 | 0.00 | 64 | 1010.6 |
| 20260509164006 | 20 | 192 | 0.0 | 3.2 | 0.00 | 0.00 | 0.00 | 63 | 1010.7 |
| 20260509163503 | 20 | 93 | 0.0 | 3.2 | 0.00 | 0.00 | 0.00 | 63 | 1010.6 |
| 20260509163007 | 20 | 209 | 0.0 | 3.2 | 0.00 | 0.00 | 0.00 | 62 | 1010.6 |
| 20260509162507 | 20 | 150 | 0.0 | 3.2 | 0.00 | 0.00 | 0.00 | 62 | 1010.6 |
| 20260509162004 | 20 | 252 | 0.0 | 1.6 | 0.00 | 0.00 | 0.00 | 62 | 1010.7 |
| 20260509161503 | 20 | 244 | 0.0 | 3.2 | 0.00 | 0.00 | 0.00 | 62 | 1010.8 |
| 20260509161006 | 20 | 221 | 0.0 | 3.2 | 0.00 | 0.00 | 0.00 | 63 | 1010.9 |
| 20260509160504 | 20 | 301 | 0.0 | 4.8 | 0.00 | 0.00 | 0.00 | 64 | 1010.9 |
| 20260509160010 | 20 | 290 | 0.0 | 4.8 | 0.00 | 0.00 | 0.00 | 64 | 1010.9 |
| 20260509155505 | 19 | 282 | 1.6 | 6.4 | 0.00 | 0.00 | 0.00 | 65 | 1010.9 |
| 20260509155003 | 19 | 90 | 1.6 | 6.4 | 0.00 | 0.00 | 0.00 | 65 | 1010.9 |
| 20260509154512 | 19 | 98 | 1.6 | 4.8 | 0.00 | 0.00 | 0.00 | 67 | 1010.9 |
| 20260509154003 | 18 | 122 | 0.0 | 3.2 | 0.00 | 0.00 | 0.00 | 66 | 1010.9 |
| 20260509153503 | 18 | 170 | 1.6 | 3.2 | 0.00 | 0.00 | 0.00 | 67 | 1011.0 |
| 20260509153010 | 18 | 198 | 0.0 | 4.8 | 0.00 | 0.00 | 0.00 | 67 | 1011.1 |
| 20260509152502 | 18 | 182 | 1.6 | 4.8 | 0.00 | 0.00 | 0.00 | 67 | 1011.2 |
| 20260509152006 | 18 | 153 | 0.0 | 4.8 | 0.00 | 0.00 | 0.00 | 68 | 1011.4 |
| 20260509151511 | 18 | 90 | 0.0 | 4.8 | 0.00 | 0.00 | 0.00 | 68 | 1011.5 |
| 20260509150503 | 18 | 284 | 0.0 | 3.2 | 0.00 | 0.00 | 0.00 | 66 | 1011.8 |